Location: Unspecified
(0.0000°N, 0.0000°E)
Time: 11:20:38
(UTC+00:00)

Courier 1B Rocket - Pass Details

Date: 20 November 2019
Orbit: 920 x 1202 km, 28.2° (Epoch: 07 December)

Event Time Altitude Azimuth Distance (km) Brightness Sun altitude
Rises 01:53:45 0° 252° (WSW) 3,961 - -53.0°
Reaches altitude 10° 01:59:03 10° 221° (SW) 2,928 - -51.9°
Maximum altitude 02:01:20 12° 202° (SSW) 2,775 - -51.4°
Drops below altitude 10° 02:03:35 10° 183° (S) 2,859 - -50.9°
Exits shadow 02:05:48 - 167° (SSE) 3,152 8.0 -50.4°
Sets 02:08:35 0° 152° (SSE) 3,734 8.6 -49.8°
